Flag for U.S.A. Weather past 2 weeks in Chico, California, U.S.A.

Now
73 °F

Scattered clouds.


Feels Like: 77 °F
Forecast: 57 / 78 °F
Wind: 6 mph from North

Location: Chico Municipal

Current Time: May 22, 2015 at 3:21:00 PM

Latest Report: May 22, 2015 at 2:50 PM


Visibility: 40 mi

Pressure: 29.93 "Hg

Humidity: 44%

Dew point: 50 °F

Location of ChicoLocation

Historic Weather in Chico — Graph

°F

Chico temperature yesterday

Maximum temperature yesterday: 75 °F (at 3:55 PM)
Minimum temperature yesterday: 54 °F (at 5:15 AM)
Average temperature yesterday: 64 °F

Past Weeks' High & Low Weather Summary

 TemperatureHumidityPressure
High81 °F (May 10, 3:50 PM)88% (May 19, 5:55 AM)30.09 "Hg (May 19, 5:55 AM)
Low48 °F (May 8, 3:55 AM)14% (May 7, 6:55 PM)29.65 "Hg (May 7, 4:50 PM)
Average63 °F54%29.91 "Hg
* Reported May 7 1:50 PM — May 22 1:47 PM, Chico, Weather by CustomWeather, © 2015

Note: Actual official high and low records may vary slightly from our data, if they occured in-between our weather recording intervals... More about our weather records

Advertising

Chico weather history for previous 24 hours

 ConditionsComfort  
Time TempWeatherWind HumidityBarometerVisibility
1:47 PM
Fri, May 22
72 °FBroken clouds.9 mph44%29.94 "Hg40 mi
12:58 PM72 °FScattered clouds.8 mph47%29.96 "Hg40 mi
11:48 AM68 °FBroken clouds.6 mph49%29.98 "Hg40 mi
10:48 AM64 °FBroken clouds.12 mph60%29.99 "Hg40 mi
9:48 AM63 °FPassing clouds.7 mph64%30.00 "Hg40 mi
8:50 AM61 °FBroken clouds.7 mph68%29.99 "Hg40 mi
7:50 AM57 °FMostly cloudy.7 mph77%29.99 "Hg40 mi
6:50 AM57 °FMostly cloudy.No wind77%29.99 "Hg40 mi
6:35 AM57 °FMostly cloudy.No wind77%29.98 "Hg10 mi
6:15 AM57 °FMostly cloudy.No wind77%29.97 "Hg10 mi
5:55 AM57 °FMostly cloudy.No wind77%29.97 "Hg10 mi
5:35 AM57 °FOvercast.No wind77%29.97 "Hg10 mi
5:15 AM57 °FOvercast.No wind77%29.97 "Hg10 mi
4:55 AM57 °FOvercast.No wind77%29.95 "Hg10 mi
4:35 AM57 °FMostly cloudy.7 mph77%29.95 "Hg10 mi
4:15 AM57 °FMostly cloudy.7 mph77%29.95 "Hg10 mi
3:55 AM57 °FMostly cloudy.6 mph77%29.94 "Hg10 mi
3:35 AM59 °FOvercast.No wind72%29.94 "Hg10 mi
3:15 AM59 °FOvercast.8 mph68%29.94 "Hg10 mi
2:55 AM59 °FOvercast.8 mph68%29.93 "Hg10 mi
2:35 AM59 °FMostly cloudy.9 mph68%29.93 "Hg10 mi
2:15 AM61 °FMostly cloudy.10 mph63%29.93 "Hg10 mi
1:55 AM63 °FPassing clouds.12 mph56%29.93 "Hg10 mi
1:35 AM63 °FPassing clouds.12 mph56%29.93 "Hg10 mi
1:15 AM63 °FPassing clouds.10 mph56%29.93 "Hg10 mi
12:55 AM63 °FPassing clouds.10 mph56%29.92 "Hg10 mi
12:35 AM64 °FPassing clouds.8 mph52%29.92 "Hg10 mi
12:15 AM64 °FOvercast.9 mph52%29.92 "Hg10 mi
11:55 PM
Thu, May 21
64 °FPassing clouds.10 mph52%29.92 "Hg10 mi
11:35 PM64 °FPassing clouds.10 mph52%29.92 "Hg10 mi
11:15 PM66 °FPassing clouds.10 mph49%29.91 "Hg10 mi
10:55 PM66 °FPassing clouds.12 mph49%29.91 "Hg10 mi
10:35 PM66 °FPassing clouds.12 mph49%29.91 "Hg10 mi
10:15 PM66 °FPassing clouds.13 mph49%29.90 "Hg10 mi
9:55 PM68 °FOvercast.15 mph49%29.89 "Hg10 mi
9:35 PM68 °FOvercast.15 mph49%29.88 "Hg10 mi
9:15 PM68 °FBroken clouds.12 mph49%29.88 "Hg10 mi
8:55 PM68 °FSunny.15 mph53%29.87 "Hg10 mi
8:35 PM70 °FSunny.13 mph50%29.86 "Hg10 mi
8:15 PM72 °FSunny.15 mph47%29.85 "Hg10 mi
7:55 PM72 °FSunny.13 mph44%29.85 "Hg10 mi
7:35 PM73 °FSunny.14 mph41%29.84 "Hg10 mi
7:15 PM73 °FSunny.16 mph41%29.83 "Hg10 mi
6:55 PM73 °FSunny.16 mph41%29.83 "Hg10 mi
5:58 PM75 °FBroken clouds.16 mph41%29.82 "Hg40 mi
4:50 PM75 °FPartly sunny.17 mph39%29.82 "Hg40 mi
3:55 PM75 °FPartly sunny.12 mph39%29.83 "Hg40 mi
Weather by CustomWeather, © 2015

See weather overviewHow to use our weather pages